Regional Weather Roundup
Issued by NWS Green Bay, WI

Home | Current Version | Previous Version | Graphics & Text | Print | Product List | Glossary Off
Versions: 1 2 3 4 5 6 7 8 9 10 11 12 13 14 15 16 17 18 19 20 21 22 23 24 25 26 27 28 29 30 31 32 33 34 35 36 37 38 39 40 41 42 43 44 45 46 47 48 49 50

000
ASUS43 KGRB 210100
RWRGRB

NORTH-CENTRAL AND NORTHEAST WISCONSIN REGIONAL WEATHER ROUNDUP
NATIONAL WEATHER SERVICE GREEN BAY WI
700 PM CST SAT JAN 20 2018

WIZ005-009-010>012-018-019-210200-
NORTH CENTRAL WISCONSIN

CITY           SKY/WX    TMP DP  RH WIND       PRES   REMARKS
IRONWOOD       MOCLDY    34  27  75 CALM      29.89R
MANITOWISH WTR NOT AVBL
ARBOR VITAE    NOT AVBL
EAGLE RIVER    CLOUDY    28  28 100 CALM      29.88S FOG
LAND O LAKES   NOT AVBL
RHINELANDER    FAIR      33  30  88 SW5       29.90S
PHILLIPS       MOCLDY    34  31  90 S3        29.89S
ANTIGO         NOT AVBL
TOMAHAWK       NOT AVBL
MERRILL        MOCLDY    33  31  93 CALM      29.93R
$$

WIZ013-073-210200-
NORTHEAST WISCONSIN

CITY           SKY/WX    TMP DP  RH WIND       PRES   REMARKS
IRON MOUNTAIN  CLOUDY    33  29  85 CALM      29.89R
MARINETTE      FAIR      36  29  75 SW5       29.95R
$$

WIZ017-030-035>037-045-210200-
CENTRAL WISCONSIN

CITY           SKY/WX    TMP DP  RH WIND       PRES   REMARKS
MEDFORD        NOT AVBL
WAUSAU         FAIR      33  29  85 CALM      29.91R
MOSINEE        MOCLDY    34  30  86 CALM      29.93R
MARSHFIELD     FAIR      33  29  85 CALM      29.91S
WISC RAPIDS    FAIR      32  28  85 CALM      29.94R
STEVENS POINT  NOT AVBL
WAUPACA        NOT AVBL
SHAWANO        MOCLDY    37  30  75 CALM      29.94R
CLINTONVILLE   NOT AVBL
WAUTOMA        FAIR      28  26  92 CALM      29.94
$$

WIZ038-039-048-051-210200-
FOX VALLEY

CITY           SKY/WX    TMP DP  RH WIND       PRES   REMARKS
NWS GREEN BAY  FAIR      34  29  82 SW3       29.95R
APPLETON       MOCLDY    34  27  75 CALM      29.93R
OSHKOSH        FAIR      31  28  89 CALM      29.94R
FOND DU LAC    FAIR      34  28  79 CALM      29.94S
$$

WIZ022-050-052-210200-
EAST CENTRAL WISCONSIN

CITY           SKY/WX    TMP DP  RH WIND       PRES   REMARKS
EPHRAIM        NOT AVBL
WASHINGTON ISL NOT AVBL
STURGEON BAY   FAIR      36  29  75 S6        29.95R
MANITOWOC      FAIR      34  30  85 CALM      29.96S
SHEBOYGAN      FAIR      32  30  92 S3        29.95R
$$

LMZ563-521-522-541>543-210200-
LAKESHORE

STATION/POSITION TIME  TEMP    WIND        PRES    VSBY  WAVE
                       AIR SEA DIR/SP/G                  HT/PER
                 (UTC) (F)     (DEG/KT/KT) (MB)    (MI)  (FT/S)
SHEBOYGAN LKSHOR 0000   38     190/  5/  5 1014.4R
KEWAUNEE LKSHORE 0030   33     170/  3/  4 1013.3R
NORTHPORT PIER   0040   35      CALM  /  4 1013.5S
SISTER BAY LKSHO 0020   37     160/  5/  7   N/A
MENOMINEE LKSHOR 0024   37     200/  6/  8 1013.1
$$




USA.gov is the U.S. government's official web portal to all federal, state and local government web resources and services.